Tracking 19176 objects as of 26-May-2018
HD Live streaming from Space Station
objects crossing your sky now

COSMOS 1054

Track COSMOS 1054 now!
10-day predictions
COSMOS 1054 is classified as:


NORAD ID: 11131
Int'l Code: 1978-109D
Perigee: 1,453.5 km
Apogee: 1,495.9 km
Inclination: 74.0 °
Period: 115.3 minutes
Semi major axis: 7845 km
RCS: 0.7021 m2 (medium)
Launch date: December 5, 1978
Source: Commonwealth of Independent States (former USSR) (CIS)
Launch site: PLESETSK MISSILE AND SPACE COMPLEX (PKMTR)
aabbcc
Your satellite tracking list
Your tracking list is empty




NASA's NSSDC Master Catalog

Two Line Element Set (TLE):
1 11131U 78109D   18145.86208455 -.00000021  00000-0 -32405-4 0  9992
2 11131  74.0161 292.6499 0026985 115.8386  37.0616 12.49267553800208
Source of the keplerian elements: AFSPC